Simultaneous Nadir Overpasses (SNOs) Predictions

Prediction of SNOs between GOES-17 and METOP-C Satellite Orbit:

Table of predicted SNOs for the next 14.0 days since TLE Epoch: 10/5/2024
Index Date Time (GOES-17) GOES-17 Lat,Lon METOP-C Lat,Lon Distance(km) Time Diff (sec)
1 10/05/2024 16:30:28 -0.01,-104.74 -0.07,-104.53 23.92 80
2 10/08/2024 04:26:07 -0.02,-104.68 0.10,-104.11 65.18 80
3 10/09/2024 16:44:57 0.02,-104.73 0.89,-108.67 448.54 80
4 10/10/2024 16:26:57 0.03,-104.72 -0.22,-103.66 121.04 80
5 10/12/2024 04:45:55 -0.03,-104.67 -0.85,-108.24 407.51 80
6 10/13/2024 04:22:34 -0.03,-104.67 0.28,-103.25 161.97 80
7 10/14/2024 16:41:24 0.03,-104.71 0.71,-107.80 351.55 80
8 10/15/2024 16:23:22 0.02,-104.71 -0.38,-102.79 218.36 80
9 10/17/2024 04:42:20 -0.01,-104.66 -0.64,-107.38 309.67 80
10 10/18/2024 04:19:00 -0.01,-104.66 0.52,-102.38 260.13 80
